Tracking 26442 objects as of 7-Dec-2022
HD Live streaming from Space Station
objects crossing your sky now

NOAA 16 DEB

Track NOAA 16 DEB now!
10-day predictions


NORAD ID: 42431
Int'l Code: 2000-055UB
Perigee: 788.1 km
Apogee: 843.7 km
Inclination: 99.0 °
Period: 101.1 minutes
Semi major axis: 7186 km
RCS: Unknown
Launch date: September 21, 2000
Source: United States (US)
Launch site: AIR FORCE WESTERN TEST RANGE (AFWTR)

Note: This is SATELLITE DEBRIS
aabbcc
Your satellite tracking list
Your tracking list is empty




NASA's NSSDC Master Catalog

Two Line Element Set (TLE):
1 42431U 00055UB  22329.08470819  .00005028  00000-0  21534-2 0  9991
2 42431  98.9844 101.8104 0038640 316.9969  42.8191 14.24918729323759
Source of the keplerian elements: AFSPC